默认 日期 大小 文件数 浏览量 最新下载 xml
gölä磁力链接相关资源由用户搜索指令自动获取,结果来源于网络,本站不存储任何资料,亦不承担任何责任,请于24小时内删除,搜索到2683个磁力,用时10ms。
    {"crack": {"crack.rar": 557050}, "depot": {"depot.rar": 460547}, "icon.ico": 17542, "data1.rar": 1949393457, "data2.rar": 4061320299, "data3.rar": 5341710176, "data4.rar": 2637520758, "setup.exe": 938898, "autorun.inf": 42}
创建时间: 2018-10-30 05:07:43 大小:13.03 GB 文件数量:9 热度:18 最近下载:2025-05-10 11:40:03
    ... .mp3": 11594582, "10. Ringass Még.mp3": 11248720, "03. Ugye Ott ...
创建时间: 2018-10-30 14:52:30 大小:107.81 MB 文件数量:11 热度:33 最近下载:2025-10-16 13:40:04
    {"Redist": {"DirectX": {"DSETUP.dll": 95576, "DXSETUP.exe": 517976, "dsetup32.dll": 1566040, "dxupdate.cab": 97152, "dxdllreg_x86.cab": 44624, "APR2007_xinput_x64.cab": 96817, "APR2007_xinput_x86.cab": 53302, "Jun2010_d3dx9_43_x64.cab": 937246, " ...
创建时间: 2018-10-30 15:01:04 大小:11.27 GB 文件数量:22 热度:18 最近下载:2025-10-09 20:17:03
    {"Setup.exe": 2645389, "autorun.exe": 1788812, "autorun.inf": 45, "Guide [EN].pdf": 101128981, "Manual [RU].pdf": 2314516, "Redistributables": {"DirectX": {"DSETUP.dll": 94040, "DXSETUP.exe": 525656, "dsetup32.dll": 1691480, "dxupdate.cab": 95820, " ...
创建时间: 2018-10-30 15:18:38 大小:3 GB 文件数量:19 热度:23 最近下载:2025-08-06 13:21:05
    ... dds": 921728}}, "PSEVDO_S.T.A.L.K.E.R_MOD": {"crosshair": ... 1024128, "wpn_crosshair_fn20010.dds": 1024128}, "G-36.dds": 1024128, "PSO1M1.dds ... , "1P21-AMK.dds": 1024128, "L-85-AMK.dds": 1024128, "Gauss ... dds": 1024128}}, "PSEVDO_S.T.A.L.K.E.R_MOD": {"crosshair": ...
创建时间: 2018-10-30 17:02:24 大小:4.77 GB 文件数量:142 热度:42 最近下载:2025-08-31 13:38:02
    ... '.flac": 20773305, "Les Génies de l'Opéra - Simon Bocanegra ... (extraits).png": 4256647, "Les Génies de l'Opéra - Simon Bocanegra ... extraits).txt": 2304, "Les Génies de l'Opéra - Simon Bocanegra ... tempia ... come un fantasima fiesco l'appar'.flac": 32881583, "03 ...
创建时间: 2018-10-30 19:52:14 大小:324.31 MB 文件数量:16 热度:20 最近下载:2025-08-04 04:52:05
    {"04 Gush.mp3": 9519680, "03 Hunter.mp3": 9770431, "10 It Girl.mp3": 11627219, "08 Lost Queen.mp3": 19198554, "07 Gust of Wind.mp3": 11557219, "01 Marilyn Monroe.mp3": 14191411, "06 Come Get It Bae.mp3": 8210417, "05 Happy (From _Despicable Me 2_).mp3": ...
创建时间: 2018-10-30 20:04:18 大小:108.84 MB 文件数量:10 热度:36 最近下载:2025-10-10 18:10:03
    ... ��� �Lg����2 ... ��� �Lg����3 ... ���� �Lg���� ...
创建时间: 2018-10-30 21:45:11 大小:1.18 GB 文件数量:5 热度:19 最近下载:2025-04-25 14:18:01
    {"The.Last.O.G.S01E01.HDTV.720p.Jaskier.mkv": 627015937}
创建时间: 2018-10-31 02:25:50 大小:597.97 MB 文件数量:1 热度:16 最近下载:2025-02-09 19:40:04
    ... .AAC.RG.25.Kadr[by.L].mkv": 2922996449, "Kvadrologiya.Borna.2012 ... .AAC.RG.25.Kadr[by.L].mkv": 2832923941, "Kvadrologiya.Borna.2004 ... .AAC.RG.25.Kadr[by.L].mkv": 2780605683, "Kvadrologiya.Borna.2002 ... .AAC.RG.25.Kadr[by.L].mkv": 2341711922}
创建时间: 2018-10-31 03:32:47 大小:10.13 GB 文件数量:4 热度:15 最近下载:2025-08-05 05:27:02
    ... lezioni.pdf": 317399, "Ziglio L., Rizzo G._Nuovo Espresso 1_2014.pdf": 137274037 ...
创建时间: 2018-10-31 07:39:25 大小:691.55 MB 文件数量:103 热度:17 最近下载:2025-08-08 22:17:03
    {"CF3R_DISC1.cdi": 675756430, "CF3R_DISC2.cdi": 408019341, "CF3R_DISC3.cdi": 828178253, "�SCG��~1": {"SAVE99.DAT": 197}}
创建时间: 2018-10-31 08:23:01 大小:1.78 GB 文件数量:4 热度:41 最近下载:2025-02-17 15:16:05
    {"04 - Gush.mp3": 9293367, "03 - Hunter.mp3": 9564000, "10 - It Girl.mp3": 11450044, "08 - Lost Queen.mp3": 18968090, "07 - Gust of Wind.mp3": 11327800, "01 - Marilyn Monroe.mp3": 13891983, "05 - Happy (From Descpicable Me 2).mp3": 9271479, "02 - Brand New ...
创建时间: 2018-10-31 11:02:35 大小:106.78 MB 文件数量:10 热度:25 最近下载:2025-08-03 11:29:07
    ... ": 2376029, "Les Génies de l'Opéra - Donizetti - L'elixir d'Amour ... ": 3230459, "Les Génies de l'Opéra - Donizetti - L'elixir d'Amour ... ": 2094, "Les Génies de l'Opéra - Donizetti - L'elixir d'Amour ...
创建时间: 2018-10-31 11:36:44 大小:200.67 MB 文件数量:20 热度:30 最近下载:2025-07-31 17:14:02
    ... �.rmvb": 186211102, "�Lg��.rmvb": 158116615, "� ...
创建时间: 2018-10-31 14:44:37 大小:536.54 MB 文件数量:13 热度:11 最近下载:2023-04-01 18:10:02
    ... Glorith-Novus).cbz": 18971149, "L.E.G.I.O.N., 1988-12 ... (DreamGirl-Empire).cbz": 63001462, "L.E.G.I.O.N. Annual, 1990 ... Novus-HD).cbz": 76688795, "L.E.G.I.O.N. Annual, ... Novus-HD).cbz": 107040991, "L.E.G.I.O.N. Annual, ... Novus-HD).cbz": 87694862, "L.E.G.I.O.N. Annual, ...
创建时间: 2018-10-31 17:55:29 大小:3.34 GB 文件数量:75 热度:25 最近下载:2025-08-06 20:49:02
    ... , "Ebook Series - Scifan - Jack L. Chalker - G.O.D. Inc. - 02 of ... , "Ebook Series - Scifan - Jack L. Chalker - G.O.D. Inc. - 03 of ... , "Ebook Series - Scifan - Jack L. Chalker - G.O.D. Inc. - 01 of ...
创建时间: 2018-10-31 18:50:45 大小:865.9 KB 文件数量:5 热度:25 最近下载:2025-08-02 23:16:08
    ... , "�f�l���G���� ...
创建时间: 2018-10-31 20:55:43 大小:698.79 MB 文件数量:11 热度:24 最近下载:2024-07-01 04:00:59
    {"Redist": {"vcredist_x86.exe": 4995416, "Social Club v1.0.6.1 Setup.exe": 17392712}, "DirectX": {"dx.inf": 34, "dxnt.cab": 13265040, "BDANT.cab": 1155491, "BDAXP.cab": 975148, "DSETUP.dll": 94040, "DXSETUP.exe": 525656, "dsetup32.dll": 1691480, "dxupdate. ...
创建时间: 2018-10-31 21:25:58 大小:12.85 GB 文件数量:29 热度:13 最近下载:2025-05-10 11:34:05
    {"data": {"Docs": {"Redist": {"DirectX": {"DSETUP.dll": 95576, "DXSETUP.exe": 517976, "dsetup32.dll": 1566040, "dxupdate.cab": 97152, "dxdllreg_x86.cab": 44624, "Aug2009_d3dx9_42_x64.cab": 930116, "Aug2009_d3dx9_42_x86.cab": 728456, "JUN2007_d3dx9_34_x64. ...
创建时间: 2018-10-31 22:56:14 大小:6.49 GB 文件数量:35 热度:40 最近下载:2025-06-01 04:02:01